When you browse on this site, cookies collect data to enhance your experience and personalize the content and advertising you see.
Visit our Privacy Policy to learn more. By continuing to use the site, you agree to this use of cookies and data.
  • In Hungary
  • List of Countries
  • For 7 days
  • Water Temperature
  • Weather Map
  • News
  • Weather Widgets
  • user-avatar
    Login

    Hourly Weather Juzhno-Sahalinsk

    Today, 20 February, Thursday

    Time Temperature Precipitation Wind Pressure Humidity
    00:00 -8°C° 0 mm 1 mps 762 mmHg 92%
    01:00 -8°C° 0 mm 1 mps 762 mmHg 92%
    02:00 -8°C° 0 mm 1 mps 762 mmHg 92%
    03:00 -9°C° 0 mm 1 mps 762 mmHg 93%
    04:00 -9°C° 0 mm 1 mps 762 mmHg 93%
    05:00 -9°C° 0 mm 1 mps 763 mmHg 92%
    06:00 -9°C° 0 mm 0 mps 763 mmHg 92%
    07:00 -8°C° 0 mm 1 mps 763 mmHg 89%
    08:00 -7°C° 0 mm 1 mps 763 mmHg 87%
    09:00 -6°C° 0 mm 1 mps 764 mmHg 86%
    10:00 -6°C° 0.1 mm 2 mps 764 mmHg 82%
    11:00 -7°C° 0.1 mm 4 mps 764 mmHg 77%
    12:00 -6°C° 0.1 mm 5 mps 764 mmHg 73%
    13:00 -7°C° 0 mm 5 mps 764 mmHg 72%
    14:00 -7°C° 0 mm 5 mps 764 mmHg 72%
    15:00 -7°C° 0 mm 4 mps 764 mmHg 72%
    16:00 -8°C° 0.1 mm 4 mps 764 mmHg 78%
    17:00 -8°C° 0.1 mm 3 mps 764 mmHg 84%
    18:00 -8°C° 0.1 mm 2 mps 764 mmHg 90%
    19:00 -9°C° 0.1 mm 2 mps 764 mmHg 89%
    20:00 -9°C° 0.1 mm 2 mps 764 mmHg 88%
    21:00 -8°C° 0.1 mm 1 mps 764 mmHg 87%
    22:00 -10°C° 0 mm 2 mps 764 mmHg 84%
    23:00 -12°C° 0 mm 3 mps 764 mmHg 81%

    Tomorrow, 21 February, Friday

    Time Temperature Precipitation Wind Pressure Humidity
    00:00 -12°C° 0 mm 4 mps 765 mmHg 78%
    01:00 -12°C° 0.1 mm 4 mps 765 mmHg 83%
    02:00 -12°C° 0.1 mm 3 mps 765 mmHg 88%
    03:00 -12°C° 0.1 mm 3 mps 765 mmHg 93%
    04:00 -13°C° 0 mm 3 mps 765 mmHg 91%
    05:00 -13°C° 0 mm 2 mps 765 mmHg 89%
    06:00 -14°C° 0 mm 2 mps 766 mmHg 87%
    07:00 -10°C° 0 mm 1 mps 766 mmHg 83%
    08:00 -8°C° 0 mm 1 mps 767 mmHg 78%
    09:00 -7°C° 0 mm 1 mps 767 mmHg 74%
    10:00 -6°C° 0 mm 1 mps 767 mmHg 72%
    11:00 -6°C° 0 mm 2 mps 768 mmHg 70%
    12:00 -6°C° 0 mm 2 mps 768 mmHg 68%
    13:00 -6°C° 0 mm 2 mps 768 mmHg 69%
    14:00 -7°C° 0 mm 3 mps 768 mmHg 70%
    15:00 -7°C° 0 mm 3 mps 768 mmHg 72%
    22:00 -12°C° 0 mm 1 mps 769 mmHg 87%
    23:00 -12°C° 0 mm 1 mps 769 mmHg 88%

    Day after tomorrow, 22 February, Saturday

    Time Temperature Precipitation Wind Pressure Humidity
    00:00 -12°C° 0 mm 1 mps 768 mmHg 89%
    01:00 -12°C° 0 mm 1 mps 768 mmHg 89%
    02:00 -13°C° 0 mm 1 mps 768 mmHg 89%
    03:00 -13°C° 0 mm 1 mps 767 mmHg 89%
    04:00 -12°C° 0 mm 1 mps 767 mmHg 89%
    05:00 -12°C° 0 mm 1 mps 766 mmHg 90%
    06:00 -11°C° 0 mm 1 mps 766 mmHg 91%
    07:00 -12°C° 0.1 mm 2 mps 765 mmHg 91%
    08:00 -10°C° 0.1 mm 3 mps 765 mmHg 92%
    09:00 -9°C° 0.1 mm 4 mps 764 mmHg 93%
    10:00 -8°C° 0.4 mm 4 mps 763 mmHg 93%
    11:00 -7°C° 0.4 mm 5 mps 762 mmHg 94%
    12:00 -7°C° 0.4 mm 5 mps 761 mmHg 94%
    13:00 -6°C° 1 mm 5 mps 760 mmHg 94%
    14:00 -6°C° 1 mm 5 mps 759 mmHg 95%
    15:00 -5°C° 1 mm 5 mps 758 mmHg 95%
    16:00 -5°C° 0.2 mm 5 mps 757 mmHg 96%
    17:00 -4°C° 0.2 mm 4 mps 755 mmHg 96%
    18:00 -4°C° 0.2 mm 4 mps 754 mmHg 96%
    19:00 -4°C° 0 mm 4 mps 753 mmHg 96%
    20:00 -4°C° 0 mm 4 mps 752 mmHg 96%
    21:00 -4°C° 0 mm 4 mps 751 mmHg 96%
    22:00 -5°C° 1.1 mm 5 mps 749 mmHg 96%
    23:00 -5°C° 1.1 mm 5 mps 747 mmHg 96%

    23 February, Sunday

    Time Temperature Precipitation Wind Pressure Humidity
    00:00 -5°C° 1.1 mm 5 mps 745 mmHg 96%
    01:00 -4°C° 1.4 mm 4 mps 744 mmHg 97%
    02:00 -4°C° 1.4 mm 4 mps 743 mmHg 97%
    03:00 -2°C° 1.4 mm 3 mps 742 mmHg 98%
    04:00 -2°C° 0.3 mm 3 mps 741 mmHg 98%
    05:00 -3°C° 0.3 mm 2 mps 740 mmHg 97%
    06:00 -3°C° 0.3 mm 2 mps 739 mmHg 97%
    07:00 -2°C° 0.2 mm 2 mps 739 mmHg 97%
    08:00 -2°C° 0.2 mm 2 mps 739 mmHg 97%
    09:00 -2°C° 0.2 mm 2 mps 738 mmHg 97%
    10:00 -2°C° 0.8 mm 3 mps 738 mmHg 94%
    11:00 -4°C° 0.8 mm 5 mps 738 mmHg 91%
    12:00 -4°C° 0.8 mm 6 mps 738 mmHg 89%
    13:00 -4°C° 0.2 mm 7 mps 739 mmHg 88%
    14:00 -6°C° 0.2 mm 7 mps 740 mmHg 88%
    15:00 -6°C° 0.2 mm 8 mps 740 mmHg 88%
    16:00 -7°C° 0 mm 8 mps 741 mmHg 87%
    17:00 -8°C° 0 mm 8 mps 743 mmHg 86%
    18:00 -10°C° 0 mm 8 mps 744 mmHg 85%
    19:00 -10°C° 0 mm 8 mps 745 mmHg 85%
    20:00 -10°C° 0 mm 8 mps 746 mmHg 85%
    21:00 -11°C° 0 mm 8 mps 747 mmHg 85%
    22:00 -11°C° 0 mm 8 mps 748 mmHg 85%
    23:00 -12°C° 0 mm 8 mps 748 mmHg 85%

    24 February, Monday

    Time Temperature Precipitation Wind Pressure Humidity
    00:00 -12°C° 0 mm 8 mps 749 mmHg 85%
    01:00 -12°C° 0 mm 8 mps 750 mmHg 82%
    02:00 -12°C° 0 mm 8 mps 750 mmHg 79%
    03:00 -13°C° 0 mm 8 mps 751 mmHg 76%
    04:00 -13°C° 0 mm 8 mps 752 mmHg 76%
    05:00 -13°C° 0 mm 8 mps 752 mmHg 76%
    06:00 -15°C° 0 mm 8 mps 753 mmHg 75%
    07:00 -13°C° 0 mm 7 mps 754 mmHg 76%
    08:00 -12°C° 0 mm 7 mps 754 mmHg 76%
    09:00 -11°C° 0 mm 7 mps 755 mmHg 76%
    10:00 -11°C° 0 mm 7 mps 755 mmHg 75%
    11:00 -9°C° 0 mm 7 mps 755 mmHg 75%
    12:00 -8°C° 0 mm 6 mps 755 mmHg 74%
    13:00 -8°C° 0 mm 6 mps 756 mmHg 74%
    14:00 -9°C° 0 mm 6 mps 756 mmHg 73%
    15:00 -9°C° 0 mm 6 mps 757 mmHg 73%
    16:00 -11°C° 0 mm 5 mps 757 mmHg 76%
    17:00 -12°C° 0 mm 5 mps 757 mmHg 79%
    18:00 -14°C° 0 mm 4 mps 758 mmHg 81%
    19:00 -14°C° 0 mm 4 mps 758 mmHg 82%
    20:00 -15°C° 0 mm 4 mps 759 mmHg 82%
    21:00 -14°C° 0 mm 3 mps 759 mmHg 82%
    22:00 -14°C° 0 mm 3 mps 759 mmHg 83%
    23:00 -14°C° 0 mm 3 mps 760 mmHg 83%

    25 February, Tuesday

    Time Temperature Precipitation Wind Pressure Humidity
    00:00 -15°C° 0 mm 3 mps 760 mmHg 83%
    01:00 -14°C° 0 mm 2 mps 760 mmHg 85%
    02:00 -14°C° 0 mm 2 mps 760 mmHg 87%
    03:00 -14°C° 0 mm 2 mps 760 mmHg 90%
    04:00 -14°C° 0 mm 2 mps 760 mmHg 90%
    05:00 -14°C° 0 mm 2 mps 760 mmHg 90%
    06:00 -13°C° 0 mm 1 mps 760 mmHg 90%
    07:00 -11°C° 0 mm 1 mps 760 mmHg 88%
    08:00 -9°C° 0 mm 1 mps 761 mmHg 85%
    09:00 -7°C° 0 mm 1 mps 761 mmHg 83%
    10:00 -6°C° 0 mm 1 mps 761 mmHg 81%
    11:00 -4°C° 0 mm 1 mps 761 mmHg 80%
    12:00 -3°C° 0 mm 1 mps 761 mmHg 79%
    13:00 -3°C° 0.1 mm 1 mps 760 mmHg 78%
    14:00 -3°C° 0.1 mm 1 mps 760 mmHg 77%
    15:00 -3°C° 0.1 mm 1 mps 760 mmHg 77%
    16:00 -4°C° 0 mm 1 mps 760 mmHg 81%
    17:00 -7°C° 0 mm 1 mps 760 mmHg 84%
    18:00 -8°C° 0 mm 1 mps 760 mmHg 88%
    19:00 -9°C° 0 mm 1 mps 760 mmHg 88%
    20:00 -10°C° 0 mm 1 mps 761 mmHg 88%
    21:00 -11°C° 0 mm 1 mps 761 mmHg 88%
    22:00 -14°C° 0 mm 2 mps 761 mmHg 85%
    23:00 -15°C° 0 mm 2 mps 761 mmHg 83%
    Show more